Notices

What's New in latest Release from April 7th, 2021:

- Updated Glossary, including Speed of Maximum Gust, and Total Hourly Precipitation

- Updated national and regional climate services offices contacts and prices information

- Addition of station inventory lists for 1981-2010, 1971-2000, and 1961-1990 Normals.

If you haven't already, please take our survey and provide feedback about our website: https://eccc.sondage-survey.ca/f/LanguageSelection.aspx?s=442ca660-fcf1-47c0-95a9-59707d6fd709

Hourly Data Report for August 04, 2004

SHERBROOKE A
QUEBEC

45°26'00.000" N
71°41'00.000" W
241.40 m
7028124
71610
YSC

Download Data

Hourly Data (August 2004)
Hourly Data Report for August 4, 2004
TIME
LST
Temp Definition
°C
Dew Point Definition
°C
Rel Hum Definition
%
Precip. Amount Definition
mm

Wind Dir Definition
10's deg

Wind Spd Definition
km/h
Visibility Definition
km
Stn Press Definition
kPa
Hmdx Definition


Wind Chill Definition


Weather Definition


00:00 17.5 16.4 93     0 9.7 97.97      
01:00 17.6 16.6 94     0 8.0 97.98      
02:00 16.9 15.9 94   26 4 6.4 97.97      
03:00 16.2 15.4 95     0 3.5 97.94      
04:00 16.0 15.4 96   29 4 1.0 97.98      
05:00 16.5 15.9 96   22 4 0.3 98.01      
06:00 16.7 16.1 96   25 4 3.9 98.06      
07:00 17.3 16.2 93   29 11 16.1 98.08     Mostly Cloudy
08:00 17.7 15.3 86   27 7 19.3 98.08     Mostly Cloudy
09:00 19.5 14.7 74   28 11 24.1 98.07     Mainly Clear
10:00 22.0 12.7 56   30 11 24.1 98.04 25   Mostly Cloudy
11:00 21.5 11.3 52   32 15 24.1 98.01     Mostly Cloudy
12:00 22.2 11.4 50   31 9 24.1 97.98     Mostly Cloudy
13:00 21.3 12.1 56   28 17 24.1 97.99     Mostly Cloudy
14:00 21.3 11.3 53   27 17 24.1 97.97     Mostly Cloudy
15:00 22.0 11.9 53   29 11 24.1 97.95     Mostly Cloudy
16:00 21.9 11.9 53   28 13 24.1 97.91     Mostly Cloudy
17:00 21.4 10.4 49   30 11 15.0 97.94      
18:00 20.3 11.6 57   28 9 15.0 97.94      
19:00 16.7 13.1 79     0 15.0 97.94      
20:00 15.5 12.5 82   20 4 15.0 97.95      
21:00 15.8 13.8 88   27 13 15.0 98.00     Rain
22:00 15.5 14.1 91     0 15.0 98.00      
23:00 13.0 12.4 96     0 4.8 98.02      

Notes on Data Quality.

Legend

  • E = Estimated
  • M = Missing
  • NA = Not Available*
  • [empty] = Indicates an unobserved value
Date modified: